Location: Acequia del Cap
(41.7000°N, 0.6167°E)
Time: 01:21:23
(UTC+00:00)

Timation 2 Rocket - Pass Details

Date: 07 August 2020
Orbit: 907 x 1074 km, 70.0° (Epoch: 22 September)

Event Time Altitude Azimuth Distance (km) Brightness Sun altitude
Exits shadow 01:14:30 84° 328° (NNW) 954 3.8 -29.7°
Drops below altitude 10° 01:20:29 10° 25° (NNE) 2,627 7.2 -29.3°
Sets 01:22:57 0° 26° (NNE) 3,560 8.2 -29.1°
